Flag for Sweden Weather past 2 weeks in Eskilstuna, Sweden

Now
54 °F

Fog.


Feels Like: 54 °F
Forecast: 48 / 58 °F
Wind: 2 mph from Northwest

Location: Vasteras / Hasslo

Current Time: Oct 2, 2014 at 6:47:52 PM

Latest Report: Oct 2, 2014 at 6:20 PM


Visibility: 6 mi

Pressure: 30.36 "Hg

Humidity: 100%

Dew point: 54 °F

Location of EskilstunaLocation

Historic Weather in Eskilstuna — Graph

°F

Eskilstuna temperature yesterday

Maximum temperature yesterday: 57 °F (at 3:50 PM)
Minimum temperature yesterday: 27 °F (at 7:20 AM)
Average temperature yesterday: 42 °F

Past Weeks' High & Low Weather Summary

 TemperatureHumidityPressure
High66 °F (Sep 19, 4:50 PM)100% (Sep 18, 1:20 AM)30.45 "Hg (Sep 18, 1:20 AM)
Low27 °F (Oct 1, 7:20 AM)39% (Sep 29, 4:20 PM)29.50 "Hg (Sep 26, 5:50 PM)
Average49 °F82%29.98 "Hg
* Reported Sep 17 5:20 PM — Oct 2 5:50 PM, Eskilstuna, Weather by CustomWeather, © 2014

Note: Actual official high and low records may vary slightly from our data, if they occured in-between our weather recording intervals... More about our weather records

Advertising

Eskilstuna weather history for previous 24 hours

 ConditionsComfort  
Time TempWeatherWind HumidityBarometerVisibility
5:50 PM
Oct 2
54 °FFog.1 mph100%30.36 "Hg6 mi
5:20 PM54 °FPartly sunny.2 mph100%30.36 "HgN/A
4:50 PM54 °FMostly cloudy.1 mph100%30.36 "HgN/A
4:20 PM55 °FPartly sunny.No wind88%30.36 "HgN/A
3:50 PM55 °FPartly sunny.No wind88%30.36 "HgN/A
3:20 PM55 °FScattered clouds.No wind88%30.36 "HgN/A
2:50 PM55 °FLight rain. Partly sunny.No wind88%30.36 "Hg4 mi
2:20 PM55 °FOvercast.1 mph82%30.36 "HgN/A
1:50 PM55 °FOvercast.2 mph82%30.33 "HgN/A
1:20 PM55 °FPartly sunny.3 mph82%30.33 "HgN/A
12:50 PM55 °FPartly sunny.6 mph82%30.33 "HgN/A
12:20 PM55 °FBroken clouds.6 mph88%30.33 "HgN/A
11:50 AM54 °FBroken clouds.6 mph88%30.33 "HgN/A
11:20 AM54 °FOvercast.8 mph88%30.33 "HgN/A
10:50 AM54 °FLight rain. Overcast.7 mph88%30.33 "HgN/A
10:20 AM54 °FOvercast.5 mph88%30.33 "HgN/A
9:50 AM52 °FOvercast.5 mph88%30.33 "HgN/A
9:20 AM52 °FOvercast.5 mph88%30.33 "HgN/A
8:50 AM50 °FPartly sunny.3 mph94%30.33 "HgN/A
8:20 AM50 °FPartly sunny.5 mph88%30.33 "HgN/A
7:50 AM48 °FPassing clouds.5 mph94%30.30 "HgN/A
7:20 AM48 °FPassing clouds.5 mph94%30.30 "HgN/A
6:50 AM48 °FPassing clouds.6 mph94%30.30 "HgN/A
6:20 AM48 °FPassing clouds.7 mph94%30.33 "HgN/A
5:50 AM48 °FPartly cloudy.7 mph94%30.33 "HgN/A
5:20 AM48 °FClear.8 mph87%30.33 "Hg10 mi
4:50 AM46 °FPassing clouds.7 mph93%30.33 "HgN/A
4:20 AM46 °FCool.8 mph93%30.33 "HgN/A
3:50 AM46 °FPassing clouds.7 mph93%30.33 "HgN/A
3:20 AM46 °FCool.7 mph93%30.33 "HgN/A
2:50 AM45 °FQuite cool.6 mph93%30.33 "HgN/A
2:20 AM46 °FCool.7 mph87%30.33 "HgN/A
1:50 AM46 °FCool.8 mph87%30.33 "HgN/A
1:20 AM46 °FCool.7 mph82%30.36 "HgN/A
12:50 AM45 °FQuite cool.7 mph87%30.36 "HgN/A
12:20 AM45 °FQuite cool.7 mph87%30.36 "HgN/A
11:50 PM
Oct 1
45 °FQuite cool.7 mph87%30.36 "HgN/A
11:20 PM45 °FQuite cool.7 mph87%30.36 "HgN/A
10:50 PM46 °FCool.7 mph82%30.36 "HgN/A
10:20 PM46 °FClear.7 mph82%30.36 "Hg10 mi
9:50 PM45 °FClear.6 mph87%30.36 "Hg10 mi
9:20 PM45 °FClear.7 mph87%30.36 "Hg10 mi
8:50 PM45 °FClear.6 mph81%30.36 "Hg10 mi
8:20 PM45 °FClear.5 mph87%30.36 "Hg10 mi
7:50 PM46 °FClear.3 mph82%30.36 "Hg10 mi
7:20 PM46 °FSunny.6 mph82%30.36 "Hg10 mi
6:50 PM48 °FSunny.7 mph71%30.36 "Hg10 mi
6:20 PM50 °FSunny.6 mph71%30.36 "Hg10 mi
Weather by CustomWeather, © 2014

See weather overviewHow to use our weather pages